NOAA 16 DEB, 41089

Orbit data source: Space-Track

NOAA 16 DEB, 41089 is space debris in SSO originally from a launch on Thu, 21 Sep 2000 UTC launched from the Air Force Western Test Range (AFWTR). Debris objects in space refer to the collection of defunct objects orbiting the Earth. Examples of debris include non-operational satellites, rocket bodies, and fragments generated from explosions, collisions, or faulty payload assembly.

Loading next visibility...
Identifier
41089, 2000-055AY
Orbit
SSO
Country
Flag of USUS
Related business
Manufacturer
Unknown
Mission
Spacecraft
Bus & Motor
Unknown
Mass
Unknown
Launch date (UTC)
2000-09-21 (26 years ago)
Launch vehicle
Unknown
Launch site
Air Force Western Test Range (AFWTR)
Object type
Payload
Rocket body
Debris
Shape & HBR
Unknown shape, 0.1 m
Radar Cross Section
Small (<0.1 m²)

Expand to show TLE details & history
Last TLE update: 1 day ago

TLE from 1 day ago
0 NOAA 16 DEB
1 41089U 00055AY  26121.46763808  .00006068  00000-0  21856-2 0  9990
2 41089  98.6847 204.1551 0004760 246.1045 113.9641 14.34048631538929
Epoch: 2026-05-01T11:13Z
TLE epoch observation values (Epoch: 2026-05-01T11:13:23.930Z)
Latitude
0.00001°
Longitude
176.40592°
Altitude
782.549 km
Speed
7.462 km/s
True Right ascension
13h 36m 37s
True Declination
0° 00' 00"
Sunlit
Object was in full shadow at epoch
Visualization orbit readout
Latitude
Unknown
Longitude
Unknown
Altitude
Unknown
Speed
Unknown
Apparent Right ascension
Unknown
Apparent Declination
Unknown
Sunlit
N/A
Visualization observer readout
Local Sidereal Time
20:48:02
Azimuth
Unknown
Elevation
Unknown
Doppler factor
Unknown
Orbital elements
Apogee altitude
778.773 km
Perigee altitude
771.963 km
Semi-major axis
7,153.505 km
Eccentricity
0.00048
Inclination
98.6847°
RAAN
204.1551°
Arg. of periapsis
246.1045°
True anomaly
114.01393°
Mean anomaly
113.9641°
Eccentric anomaly
113.98902°
Mean motion
3.58728 °/min
Orbital period
100.35 mins
BSTAR
0.0021856
Loading maneuver chart data...
Computing Atmospheric mass density...
Loading historical data...
Loading historical data...
Loading historical data...
Loading historical data...
Loading historical data...
Loading historical data...
Loading historical data...

Documentation

Showing up to 5 results
|